sat.trackr.live / text

‹ back to catalog

STARLINK-4214

NORAD 52877 · 2022-062AZ

PAYLOAD ACTIVE UNKNOWN

§ Identity

Operator
Country
US
Launch date
2022-06-17
Launch site
AFETR
Launch vehicle
Mass (kg)
RCS (m²)

Purposes: comms

External: N2YO · Heavens-Above · Gunter

§ Orbital elements

Epoch: 2026-09-19T12:35:48.257376Z

Period
93.85 min
Inclination
53.1587°
Eccentricity
0.0001390
Mean motion
15.34395116 rev/d
Perigee alt
461.8 km
Apogee alt
463.7 km
Semi-major
6,840.9 km
B*
1.1334e-5
RAAN
210.4766°
Arg perigee
79.8193°
Mean anomaly
280.2967°
Rev number
23,551

§ Raw data

STARLINK-42141 52877U 22062AZ  26262.52486409  .00000007  00000+0  11334-4 0  99992 52877  53.1587 210.4766 0001390  79.8193 280.2967 15.34395116235514

JSON: /api/v1/satellites/52877 · /tle

For live sub-satellite position, see the globe view (requires WebGL).

§ Visibility from observer

Set your observer location to see the next 7 days of passes ≥ 10°. The values pass through the URL so the page stays shareable.

No JS? Fill the form by hand. The geolocation button needs JavaScript.